Regional Weather Roundup
Issued by NWS Newport/Morehead, NC

Current Version | Previous Version | Text Only | Print | Product List | Glossary Off
Versions: 1 2 3 4 5 6 7 8 9 10 11 12 13 14 15 16 17 18 19 20 21 22 23 24 25 26 27 28 29 30 31 32 33 34 35 36 37 38 39 40 41 42 43 44 45 46 47 48 49 50
000 ASUS42 KMHX 031425 RWRMHX WEATHER ROUNDUP FOR EASTERN NORTH CAROLINA NATIONAL WEATHER SERVICE NEWPORT/MOREHEAD CITY NC 1000 AM EDT THU SEP 03 2015 NOTE: "FAIR" INDICATES FEW OR NO CLOUDS BELOW 12,000 FEET WITH NO SIGNIFICANT WEATHER AND/OR OBSTRUCTIONS TO VISIBILITY NCZ015>017-031-032-045>047-102-103-031500- NORTH COAST CITY SKY/WX TMP DP RH WIND PRES REMARKS EDENTON CLOUDY 72 68 88 NW6 29.95R ELIZABETH CITY SUNNY 76 69 79 W6 29.94R KITTY HAWK SUNNY 81 69 66 NW6 29.93R MANTEO SUNNY 78 71 78 NW6 29.94S $$ NCZ045>047-081-094-103-104-031500- CENTRAL COAST CITY SKY/WX TMP DP RH WIND PRES REMARKS FRISCO SUNNY 80 72 76 VRB5 29.94R SWANQUARTER N/A 79 N/A N/A W5 29.88F $$ NCZ095-097-098-100-101-031500- SOUTHERN COAST CITY SKY/WX TMP DP RH WIND PRES REMARKS BEAUFORT SUNNY 79 72 79 CALM 29.95R CEDAR ISLAND N/A 79 N/A N/A NW5G10 29.97S JACKSONVILLE PTSUNNY 80 71 74 NW7 29.94R PINEY ISLAND SUNNY N/A N/A N/A VRB5 29.94S WILMINGTON PTSUNNY 82 72 71 VRB5 29.94R $$ NCZ011>013-027>030-043-044-078>080-089-090>093-098-031500- COASTAL PLAIN CITY SKY/WX TMP DP RH WIND PRES REMARKS AHOSKIE N/A N/A N/A N/A MISG N/A CLINTON SUNNY 80 73 80 CALM 29.97S ELIZABETHTOWN MOSUNNY 78 71 80 CALM 29.97R GOLDSBORO MOSUNNY 75 71 89 W7 29.95S GREENVILLE CLOUDY 73 72 94 CALM 29.97S FOG HAVELOCK SUNNY 80 72 76 N3 29.96R KENANSVILLE N/A 76 71 83 NW3 29.98S KINSTON SUNNY 77 72 83 NW6 29.96S NEW BERN SUNNY 78 70 76 NW3 29.96R RICHLANDS MOSUNNY 75 70 83 NW3 29.96R ROCKY MOUNT SUNNY 76 70 82 NW3 29.96S HAZE WASHINGTON CLOUDY 71 69 94 CALM 29.95S WHITEVILLE PTSUNNY 81 74 78 S6 29.95S $$ AMZ130-135-150-152-154-156-158-170-250-252-270-ANZ085-086-088-633-658-670-031500- MARINE OBSERVATIONS STATION/POSITION TIME TEMP WIND PRES WAVE SWELL AIR SEA DIR/SP/G HT/PER HT/PER (UTC) (F) (DEG/KT/KT) (MB) (FT/S) (FT/S) CHESAPEAKE LIGHT 1400 80 290/ 12/ 12 1013.8 64 E VA BEACH 1350 78 78 310/ 10/ 12 1012.5 2/13 2/13 DUCK 1400 77 80 280/ 7/ 8 1012.9 2 E DUCK 1311 80 N/A 2/13 2/13 OREGON INLET 1400 78 82 260/ 5/ 7 1013.5 13E OREGON INLT 1400 80 N/A 2/13 HATTERAS CG 1400 78 82 330/ 5/ 6 1013.5 DIAMOND BUOY 1350 80 85 350/ 6/ 8 1013.9 2/13 2/13 CAPE LOOKOUT 1400 78 50/ 5/ 6 1013.8 BEAUFORT LAB 1400 79 81 10/ 3/ 4 1013.4 30 SE NEW RVR IN 1308 80 81 80/ 4/ 4 1013.9 30 SE NEW RVR IN 1325 81 N/A 2/ 7 27 SE WRIGHTSVLE 1400 78 82 220/ 8/ 10 N/A 5 SE WRIGHTSVLE 1308 81 82 210/ 10/ 12 1013.5 225 S CAPE HAT 1350 83 84 320/ 6/ 8 1014.1 2/12 2/12 41 SE CHARLESTON 1350 81 84 210/ 6/ 8 1014.7 2/ 8 2/ 8 $$

USA.gov is the U.S. government's official web portal to all federal, state and local government web resources and services.